Probability
0 0 0 0 0 0 0 0 0 0 0 0 0 0 0 1 0 1 1 1 1 1 0 0 0 5 19 46 75 91 84 58 27 14 24 37 36 25 11 2 1 1 0 0
0 0 0 0 0 0 0 0 0 0 0 0 0 0 0 1 1 1 3 4 5 7 9 11 13 18 29 51 73 80 70 50 32 30 45 58 57 43 25 13 7 2 0 0
0 0 0 0 0 0 0 0 0 0 0 0 0 0 0 1 1 2 3 5 7 12 18 25 33 38 46 56 65 65 56 48 48 56 69 77 72 57 44 34 21 8 1 0
0 0 0 0 0 0 0 0 0 0 0 0 0 0 0 0 0 1 1 2 3 7 12 20 29 35 38 40 41 43 43 45 54 65 71 72 67 57 49 43 30 14 4 2
0 0 0 0 0 0 0 0 0 0 0 0 0 0 0 0 0 0 0 0 0 0 2 5 8 12 13 12 14 18 21 25 35 45 48 48 47 43 38 31 22 13 7 5
0 0 0 0 0 0 0 0 0 0 0 0 0 0 0 0 0 0 0 0 0 0 0 0 0 0 0 0 1 2 4 5 10 16 18 19 19 20 18 13 9 8 8 7
0 0 0 0 0 0 0 0 0 0 0 0 0 0 0 0 0 0 0 0 0 0 0 0 0 0 0 0 0 0 0 0 0 1 2 3 3 4 3 2 2 4 5 6
0 0 0 0 0 0 0 0 0 0 0 0 0 0 0 0 0 0 0 0 0 0 0 0 0 0 0 0 0 0 0 0 0 0 0 0 0 0 0 0 1 1 1 2
0 0 0 0 0 0 0 0 0 0 0 0 0 0 0 0 0 0 0 0 0 0 0 0 0 0 0 0 0 0 0 0 0 0 0 0 0 0 0 0 0 0 0 0
0 0 0 0 0 0 0 0 0 0 0 0 0 0 0 0 0 0 0 0 0 0 0 0 0 0 0 0 0 0 0 0 0 0 0 0 0 0 0 0 0 0 0 0
0 0 0 0 0 0 0 0 0 0 0 0 0 0 0 0 0 0 0 0 0 0 0 0 0 0 0 0 0 0 0 0 0 0 0 0 0 0 0 0 0 0 0 0
0 0 0 0 0 0 0 0 0 0 0 0 0 0 0 0 0 0 0 0 0 0 0 0 0 0 0 0 0 0 0 0 0 0 0 0 0 0 0 0 0 0 0 0
0 0 0 0 0 0 0 0 0 0 0 0 0 0 0 0 0 0 0 0 0 0 0 0 0 0 0 0 0 0 0 0 0 0 0 0 0 0 0 0 0 0 0 0
0 0 0 0 0 0 0 0 0 0 0 0 0 0 0 0 0 0 0 0 0 0 0 0 0 0 0 0 0 0 0 0 0 0 0 0 0 0 0 0 0 0 0 0
0 0 0 0 0 0 0 0 0 0 0 0 0 0 0 0 0 0 0 0 0 0 0 0 0 0 0 0 0 0 0 0 0 0 0 0 0 0 0 0 0 0 0 0
0 0 0 0 0 0 0 0 0 0 0 0 0 0 0 0 0 0 0 0 0 0 0 0 0 0 0 0 0 0 0 0 0 0 0 0 0 0 0 0 0 0 0 0
0 0 0 0 0 0 0 0 0 0 0 0 0 0 0 0 0 0 0 0 0 0 0 0 0 0 0 0 0 0 0 0 0 0 0 0 0 0 0 0 0 0 0 0
0 0 0 0 0 0 0 0 0 0 0 0 0 0 0 0 0 0 0 0 0 0 0 0 0 0 0 0 0 0 0 0 0 0 0 0 0 0 0 0 0 0 0 0
0 0 0 0 0 0 0 0 0 0 0 0 0 0 0 0 0 0 0 0 0 0 0 0 0 0 0 0 0 0 0 0 0 0 0 0 0 0 0 0 0 0 0 0
0 0 0 0 0 0 0 0 0 0 0 0 0 0 0 0 0 0 0 0 0 0 0 0 0 0 0 0 0 0 0 0 0 0 0 0 0 0 0 0 0 0 0 0
0 0 0 0 0 0 0 0 0 0 0 0 0 0 0 0 0 0 0 0 0 0 0 0 0 0 0 0 0 0 0 0 0 0 0 0 0 0 0 0 0 0 0 0
0 0 0 0 0 0 0 0 0 0 0 0 0 0 0 0 0 0 0 0 0 0 0 0 0 0 0 0 0 0 0 0 0 0 0 0 0 0 0 0 0 0 0 0
0 0 0 0 0 0 0 0 0 0 0 0 0 0 0 0 0 0 0 0 0 0 0 0 0 0 0 0 0 0 0 0 0 0 0 0 0 0 0 0 0 0 0 0
0 0 0 0 0 0 0 0 0 0 0 0 0 0 0 0 0 0 0 0 0 0 0 0 0 0 0 0 0 0 0 0 0 0 0 0 0 0 0 0 0 0 0 0
0 0 0 0 0 0 0 0 0 0 0 0 0 0 0 0 0 0 0 0 0 0 0 0 0 0 0 0 0 0 0 0 0 0 0 0 0 0 0 0 0 0 0 0
0 0 0 0 0 0 0 0 0 0 0 0 0 0 0 0 0 0 0 0 0 0 0 0 0 0 0 0 0 0 0 0 0 0 0 0 0 0 0 0 0 0 0 0
0 0 0 0 0 0 0 0 0 0 0 0 0 0 0 0 0 0 0 0 0 0 0 0 0 0 0 0 0 0 0 0 0 0 0 0 0 0 0 0 0 0 0 0
Wind_Speed
12 11 8 8 12 12 8 6 4 7 10 13 13 13 11 10 8 7 5 5 4 3 2 2 3 3 4 4 7 10 8 6 5 5 5 6 4 4 4 4 5 5 5 5
15 13 7 10 19 17 14 13 11 10 10 15 17 13 14 14 11 9 6 6 6 5 4 2 1 2 3 3 4 8 8 6 5 3 2 3 3 4 4 4 4 4 4 4
12 13 8 9 15 15 14 15 13 13 13 17 18 14 15 15 14 13 12 11 10 10 10 9 8 7 6 5 5 4 3 2 1 1 1 2 2 3 4 4 4 4 4 3
9 10 5 6 7 13 10 13 18 17 18 20 17 8 13 14 14 14 13 13 12 11 11 11 11 11 10 9 9 8 7 5 5 4 4 3 3 4 4 4 4 5 5 5
5 6 6 6 9 11 8 6 15 18 20 22 21 11 13 16 13 12 12 10 9 10 10 10 10 9 9 9 9 8 7 7 8 8 7 6 5 4 4 4 4 3 4 5
6 6 5 4 10 12 6 2 12 17 19 20 21 13 13 15 10 9 8 8 8 9 9 9 9 9 9 9 8 7 7 7 7 6 6 6 6 5 4 3 3 3 2 1
8 5 3 2 8 7 4 6 14 15 16 17 17 14 15 14 7 5 5 6 6 6 6 7 8 9 8 7 7 6 5 5 5 5 4 4 5 4 4 3 3 3 3 2
8 7 4 6 6 5 4 8 11 14 15 16 17 17 16 14 6 4 5 5 5 4 4 5 6 6 6 5 4 4 3 3 3 4 4 4 4 3 3 2 2 2 1 1
5 4 5 4 4 4 6 10 12 13 15 16 17 16 15 13 7 3 3 4 3 3 3 5 5 5 4 3 2 3 3 2 3 4 3 3 3 3 2 2 2 2 2 2
5 4 8 5 7 8 9 10 12 13 15 15 15 15 13 11 7 1 3 4 0 1 3 3 3 3 4 3 4 1 3 2 4 4 3 4 4 5 5 5 5 4 4 3
4 6 7 7 10 11 13 12 12 13 14 14 15 14 12 10 7 2 3 3 1 1 2 1 1 3 4 4 5 4 3 4 4 4 3 3 4 5 5 6 5 4 4 4
4 6 6 9 10 11 12 13 13 14 15 14 14 12 10 9 6 3 1 2 2 1 2 3 2 3 4 3 4 5 4 4 3 2 2 2 3 4 7 6 7 8 7 5
5 6 7 8 10 11 11 12 12 13 14 14 13 11 10 8 6 4 2 1 2 4 4 3 1 2 3 3 3 4 3 3 2 2 1 0 1 2 3 3 4 6 7 8
4 6 8 8 9 11 12 12 12 12 12 12 11 10 10 9 8 6 4 2 3 4 4 3 1 1 3 2 1 2 2 3 2 2 2 2 1 2 2 2 2 1 3 7
4 6 8 8 9 10 11 12 12 12 12 12 11 10 10 9 8 8 6 4 3 4 4 4 3 1 2 1 1 2 3 3 3 2 2 2 2 2 2 3 2 2 1 1
5 7 8 9 9 10 12 13 13 12 12 12 11 11 11 10 9 9 7 5 4 5 5 5 4 3 4 2 1 1 4 4 2 2 2 1 2 2 2 2 3 2 2 2
5 7 8 9 10 10 11 12 12 12 12 12 12 12 12 11 10 8 6 4 5 5 5 4 3 4 5 3 3 2 3 4 1 2 2 2 2 3 2 3 3 3 3 3
3 5 7 9 9 10 10 11 11 12 12 12 12 12 12 11 10 9 8 5 4 5 5 4 3 5 5 4 2 1 2 4 2 1 2 3 2 2 2 3 4 4 3 2
3 6 7 8 8 9 9 10 11 11 11 11 12 12 11 11 11 10 9 7 5 4 5 4 6 6 5 4 2 1 0 3 3 2 2 2 1 2 2 3 3 3 3 2
4 5 6 7 8 8 9 9 10 10 9 11 12 11 11 11 11 11 10 7 4 4 3 4 7 5 5 6 4 2 2 3 3 2 2 1 2 3 3 3 4 3 3 3
5 5 6 6 7 8 9 9 9 8 9 9 10 12 11 11 11 10 9 7 6 2 0 5 5 4 4 7 5 2 3 3 3 2 2 2 2 3 3 4 4 3 3 3
5 4 5 5 6 7 7 8 8 8 8 8 10 11 11 10 11 10 10 6 3 1 2 3 3 5 8 9 3 2 3 4 3 2 2 2 3 3 3 4 4 3 3 3
4 4 5 5 6 7 8 7 7 7 7 8 10 11 10 9 7 8 8 6 4 0 2 2 4 12 13 7 4 3 4 4 3 3 2 3 3 3 4 4 4 3 3 3
5 5 5 6 7 7 7 7 6 6 6 7 7 9 10 8 7 6 7 8 6 2 3 2 10 14 11 4 4 4 4 4 3 3 3 3 3 4 4 4 4 3 3 4
6 6 7 6 5 5 6 6 7 5 5 5 7 9 8 7 8 7 8 8 5 3 3 5 11 12 7 4 4 4 4 4 4 3 4 4 4 4 4 4 4 4 4 4
5 4 4 5 5 4 5 4 3 3 4 5 5 6 7 8 9 7 6 8 6 3 2 3 6 7 5 4 4 4 5 6 5 4 4 4 5 4 4 4 5 4 4 4
6 5 4 4 5 5 4 3 3 3 4 5 6 7 8 8 8 8 9 8 4 2 3 3 5 6 5 3 4 4 5 5 4 4 4 4 4 4 4 5 4 5 4 4
Wind_Direction
309 297 278 290 316 316 336 3 23 25 33 5 340 322 326 329 322 313 301 296 302 292 265 223 209 212 209 193 168 154 152 173 194 226 202 187 197 184 199 217 212 210 209 196
310 306 300 37 23 27 41 44 52 45 25 352 347 357 7 2 1 2 12 15 6 2 13 348 222 182 163 147 145 148 155 180 193 215 233 183 189 194 210 217 228 235 217 202
309 305 297 53 14 14 34 36 38 36 12 355 360 12 18 11 17 28 34 34 32 35 33 28 40 56 77 78 83 100 121 127 143 200 274 266 242 233 223 217 217 239 244 225
320 336 58 63 10 5 6 34 23 12 6 360 355 355 29 20 25 27 31 36 36 40 42 45 48 49 54 53 50 50 42 31 26 21 3 343 314 286 266 247 227 219 228 235
341 349 85 39 6 351 328 343 14 0 354 353 351 354 16 15 28 28 24 30 33 38 47 46 45 51 60 60 54 47 35 31 35 33 23 8 349 324 305 291 280 258 237 231
359 7 35 355 328 318 266 265 0 347 343 347 351 2 354 349 17 34 23 26 34 34 40 47 45 46 54 56 54 46 36 37 38 35 24 7 351 344 342 337 330 333 321 305
5 33 76 331 328 344 48 313 320 324 331 340 343 335 326 333 5 47 43 29 45 43 38 48 58 57 53 52 54 52 42 42 41 31 29 15 355 356 3 13 14 12 10 9
2 19 31 12 359 10 314 301 308 317 325 328 327 325 329 333 351 45 59 47 50 54 48 47 54 71 68 49 54 70 55 47 70 60 30 19 4 1 6 22 30 22 13 360
354 7 17 355 357 336 305 304 311 315 317 320 323 326 328 329 339 58 69 73 66 67 70 72 58 53 68 44 6 87 68 40 75 92 67 27 8 2 4 17 31 37 36 30
341 5 4 18 9 339 324 311 310 309 312 317 320 322 324 324 328 74 93 88 85 202 98 81 80 70 56 15 333 87 113 78 79 75 69 52 28 18 26 24 23 28 29 18
333 5 353 349 342 328 320 317 318 316 316 317 318 319 323 325 335 32 103 124 259 10 55 76 96 88 75 28 339 336 92 91 89 86 85 82 69 44 32 50 37 23 14 7
348 358 331 319 323 322 320 323 324 320 319 319 316 315 324 331 337 352 35 129 145 120 293 304 44 65 84 50 347 356 50 61 69 89 88 106 130 108 59 61 56 52 40 18
309 327 317 321 328 328 324 327 325 320 317 315 316 324 328 326 327 336 321 272 176 179 222 267 4 49 88 80 9 347 39 57 46 58 72 227 192 152 142 101 67 52 37 27
306 323 332 340 333 331 334 334 331 328 326 324 323 324 322 324 332 329 307 268 205 197 211 233 266 29 89 94 4 328 56 90 37 33 7 1 19 56 100 132 134 103 50 37
319 329 329 337 337 339 341 340 340 340 336 334 330 327 325 325 323 316 304 276 221 216 220 224 231 212 121 109 320 345 48 56 44 29 6 33 59 71 78 85 102 112 112 59
321 322 337 340 340 342 343 342 341 341 337 333 334 331 325 316 305 294 281 261 234 231 229 223 222 186 140 151 205 102 101 85 34 350 352 51 74 82 85 83 86 90 73 38
304 328 335 332 335 339 338 336 335 336 334 334 333 328 321 314 307 303 296 260 235 239 242 230 205 149 143 176 205 216 147 131 128 315 9 41 61 73 73 82 86 79 73 42
310 320 317 320 326 329 329 332 332 331 332 333 332 329 326 322 318 313 306 287 247 232 238 235 171 143 154 190 209 239 141 141 156 107 67 46 39 76 79 84 93 90 93 78
288 300 309 314 320 320 323 325 325 326 331 335 334 330 325 320 316 312 310 308 286 257 234 209 166 159 164 166 159 154 150 115 115 108 106 103 52 92 89 86 93 92 81 69
269 291 302 311 316 320 317 317 320 324 332 335 332 329 329 327 324 319 313 306 282 260 249 177 159 174 169 149 159 205 147 114 115 126 128 118 99 98 93 87 85 89 90 82
258 278 294 308 314 313 310 315 319 325 333 335 332 328 326 325 322 317 310 304 299 273 173 143 155 169 155 141 165 199 130 121 125 132 139 135 116 111 105 100 95 87 85 78
244 269 291 302 306 308 315 317 316 325 333 334 331 326 325 326 326 320 309 293 310 82 127 161 181 157 140 139 167 173 132 128 125 124 134 128 115 115 113 108 102 93 84 75
250 272 287 299 307 310 310 310 322 330 331 330 326 322 322 319 316 312 311 329 348 295 250 215 174 145 143 149 170 163 145 140 142 144 137 121 115 114 113 109 105 101 93 83
248 265 277 286 292 299 307 320 326 322 324 322 318 318 320 320 318 316 318 321 320 280 277 214 156 154 155 175 172 162 156 148 149 151 133 124 119 112 110 110 107 101 95 88
246 257 263 275 287 294 305 312 311 316 320 318 317 319 324 320 313 311 307 303 296 258 246 177 170 166 171 197 174 163 154 148 148 139 127 124 119 118 120 122 120 113 106 96
249 254 256 264 270 278 281 281 292 307 313 316 315 320 322 314 309 309 305 300 289 240 230 157 176 180 199 206 169 156 139 134 136 139 138 133 131 128 128 128 124 118 112 106
253 250 239 241 247 249 257 273 287 297 307 309 316 317 311 309 313 321 320 313 304 224 207 170 181 190 205 188 156 153 144 145 153 152 141 134 134 136 138 133 123 117 114 112